Location: Kott?ru
(16.6209°N, 80.6208°E)
Time: 13:22:10
(UTC+00:00)

Cosmos 2112 Rocket - Pass Details

Date: 18 September 2020
Orbit: 756 x 787 km, 74.1° (Epoch: 30 October)

Event Time Altitude Azimuth Distance (km) Brightness Sun altitude
Rises 13:56:16 0° 348° (NNW) 3,216 7.5 -19.8°
Reaches altitude 10° 13:58:38 10° 349° (N) 2,294 6.7 -20.4°
Maximum altitude 14:03:50 81° 77° (ENE) 778 3.8 -21.6°
Enters shadow 14:06:57 25° 162° (SSE) 1,513 5.3 -22.3°
